Lexington Weather

Lexington, Massachusetts, USA

68°F
7/3/2020 1:01pm 
  • Lexington Conditions: Overcast
  • Temperature: 67.8°F / 19.9°CColder 0.6°F than last hour.
  • Dew Point: 63.9°FDecreased 0.5°Fsince last hour.
  • Relative Humidity: 87
  • Wind: Wind from NE NE 1 mph, 10-min avg: 1 mph, gust: 4 mph
  • Barometer: 29.86 in Steady
  • Visibility: 10 miles
  • Rain Today: 0.00 in
  •   

Regional Weather Roundup
for Boston / Norton, MA

        
000
ASUS41 KBOX 280104
RWRBOX

REGIONAL WEATHER ROUNDUP
NATIONAL WEATHER SERVICE BOSTON/NORTON MA
900 PM EDT SAT JUN 27 2020

NOTE:  "FAIR" INDICATES FEW OR NO CLOUDS BELOW 12,000 FEET WITH NO 
SIGNIFICANT WEATHER AND/OR OBSTRUCTIONS TO VISIBILITY.

MAZALL-280200-
EASTERN MASSACHUSETTS
  
CITY           SKY/WX    TMP DP  RH WIND       PRES   REMARKS
BOSTON         CLOUDY    67  63  87 E7        29.71F                  
BEVERLY        CLOUDY    70  63  78 SE7       29.70S                  
LAWRENCE       CLOUDY    72  64  76 S3        29.72S                  
BEDFORD        CLOUDY    71  62  73 SE6       29.69F                  
BLUE HILL        N/A     65  64  97 E6        29.70F                  
NORWOOD        CLOUDY    69  65  86 CALM      29.69F                  
MARSHFIELD     CLOUDY    68  68 100 SE6       29.69S                  
PLYMOUTH       CLOUDY    67  66  97 E6        29.68F                  
TAUNTON        CLOUDY    70  66  87 NE3       29.67F                  
NEW BEDFORD    LGT RAIN  69  68  96 E3        29.66F FOG              
$$

MAZALL-280200-
CAPE COD AND THE ISLANDS
  
CITY           SKY/WX    TMP DP  RH WIND       PRES   REMARKS
FALMOUTH       LGT RAIN  68  68 100 SE8       29.68F                  
HYANNIS        LGT RAIN  71  67  87 VRB6      29.67F FOG              
CHATHAM        LGT RAIN  66  64  93 S8G18     29.70F FOG              
PROVINCETOWN   CLOUDY    67  66  97 SE6       29.71F                  
NANTUCKET      CLOUDY    66  65  96 S14       29.69F                  
MARTHAS VNYRD  CLOUDY    69  67  93 SW9       29.67F FOG              
$$
 
MAZALL-280200-
CENTRAL AND WESTERN MASSACHUSETTS
  
CITY           SKY/WX    TMP DP  RH WIND       PRES   REMARKS
WORCESTER      CLOUDY    66  62  87 N3        29.73S                  
FITCHBURG      CLOUDY    71  61  70 S3        29.72S                  
ORANGE         CLOUDY    68  65  90 NW5       29.74S                  
SPRINGFIELD    CLOUDY    67  66  96 NW6       29.72R                  
WESTFIELD      CLOUDY    66  65  96 W3        29.73R                  
NORTH ADAMS    CLOUDY    66  64  93 CALM      29.75R                  
PITTSFIELD     MOCLDY    64  62  93 CALM      29.75S                  
$$
 
RIZALL-280200-
RHODE ISLAND
  
CITY           SKY/WX    TMP DP  RH WIND       PRES   REMARKS
PROVIDENCE     LGT RAIN  69  68  96 NE5       29.68S                  
NEWPORT        CLOUDY    70  68  93 CALM      29.67S FOG              
BLOCK ISLAND   CLOUDY    68  66  93 W15       29.69R                  
SMITHFIELD     LGT RAIN  66  66 100 NE5       29.70F                  
WESTERLY       CLOUDY    71  66  84 SW7       29.69R                  
$$
 
CTZALL-280200-
CONNECTICUT
  
CITY           SKY/WX    TMP DP  RH WIND       PRES   REMARKS
BRADLEY INTL   MOCLDY    65  63  93 NW6       29.73R                  
HARTFORD       PTCLDY    67  63  87 NW7       29.72R                  
BRIDGEPORT     CLOUDY    75  69  81 NW3       29.72R                  
DANBURY        MOCLDY    71  66  84 NW3       29.75R                  
GROTON         CLOUDY    70  66  87 NW10      29.69R                  
NEW HAVEN      CLOUDY    71  68  90 N6        29.72R                  
CHESTER        NOT AVBL                                               
MERIDEN        MOCLDY    67  63  87 NW5       29.73R                  
WILLIMANTIC    CLOUDY    67  65  93 NW6       29.71R                  
OXFORD         MOCLDY    66  66 100 CALM      29.75R                  
$$

MEZ002-015-021-024-NHZ003-005-008-011-012-014-VTZ005-008-280200-
NORTHERN NEW ENGLAND
  
CITY           SKY/WX    TMP DP  RH WIND       PRES   REMARKS
PORTLAND ME    MOCLDY    71  61  70 CALM      29.72R                  
BANGOR ME      MOCLDY    69  54  58 SE7       29.74R                  
CONCORD NH     CLOUDY    72  61  68 CALM      29.72S                  
MANCHESTER NH  CLOUDY    74  61  63 S3        29.70S                  
NASHUA NH      CLOUDY    72  66  81 CALM      29.72R                  
PORTSMOUTH NH  CLOUDY    72  60  67 S5        29.69S                  
JAFFREY NH     CLOUDY    69  61  75 CALM      29.75S                  
KEENE NH       CLOUDY    67  63  87 CALM      29.73S                  
BURLINGTON VT  LGT RAIN  70  61  73 S14       29.68F                  
MT. WASHINGTON FOG       48  48 100 S12         N/A  VSB 1/8          
$$

NYZ052-076-280200-
EASTERN NEW YORK
  
CITY           SKY/WX    TMP DP  RH WIND       PRES   REMARKS
ALBANY         MOCLDY    69  64  84 CALM      29.74S                  
NEW YORK CITY  MOCLDY    80  68  66 CALM      29.72R                  
$$
 
ANZALL-280200-
MARINE OBSERVATIONS
  
STATION/POSITION TIME  TEMP    WIND        PRES    VSBY  WAVE
                       AIR SEA DIR/SP/G                  HT/PER
                 (UTC) (F)     (DEG/KT/KT) (MB)    (MI)  (FT/S)
BOSTON BUOY      0050   67 68  130/  8/ 10 1004.6F         1/ 8
BUZZARDS BAY     0000          220/ 16/ 18 1005.4F
NANTUCKET SOUND  0050   67 69  170/ 16/ 17 1004.2F         1/ 3
MASS BAY-STELLWA 0004   65     190/  6/ 10 1003.8F  1 7/8  2/ 8
ISLE OF SHOALS   0000   71     190/ 13/ 13 1005.3F
S OF BLOCK IS    0026      70                N/A           4/ 4
$$

......................KEY.........................
  SKY/WX - SKY CONDITION/PRESENT WEATHER
  TMP    - TEMPERATURE IN FAHRENHEIT
  DWPT   - DEWPOINT IN FAHRENHEIT
  RH     - RELATIVE HUMIDITY IN PERCENT
  WIND   - DIRECTION AND SPEED IN MPH
  PRES   - MEAN SEA LEVEL PRESSURE IN INCHES OF HG
  WCI    - WIND CHILL INDEX
  VSB    - VISIBILITY IN MILES
  HX     - HEAT INDEX
  TC     - TEMPERATURE IN CELSIUS
  VRB    - VARIABLE WIND DIRECTION
  N/A    - NOT AVAILABLE
  
      

Other recent Regional Weather Roundups

Fri Jul 3, 12:04pm

Fri Jul 3, 11:04am

Fri Jul 3, 10:04am

Fri Jul 3, 9:04am

Fri Jul 3, 8:04am

Fri Jul 3, 7:04am

Fri Jul 3, 6:04am

Fri Jul 3, 5:04am

Fri Jul 3, 4:04am

Fri Jul 3, 3:04am

Fri Jul 3, 2:04am

Fri Jul 3, 1:04am

Fri Jul 3, 12:04am

Thu Jul 2, 11:05pm

Thu Jul 2, 10:04pm

Thu Jul 2, 9:04pm

Thu Jul 2, 8:04pm

Thu Jul 2, 7:05pm

Thu Jul 2, 6:04pm

Thu Jul 2, 5:05pm

Thu Jul 2, 4:04pm

Thu Jul 2, 3:04pm

Thu Jul 2, 2:04pm

Thu Jul 2, 1:05pm

Thu Jul 2, 12:04pm

Thu Jul 2, 11:04am

Thu Jul 2, 10:05am

Thu Jul 2, 9:05am

Thu Jul 2, 8:04am

Thu Jul 2, 7:04am

Thu Jul 2, 6:05am

Thu Jul 2, 5:04am

Thu Jul 2, 4:04am

Thu Jul 2, 3:04am

Thu Jul 2, 2:04am

Thu Jul 2, 1:04am

Thu Jul 2, 12:05am

Wed Jul 1, 11:05pm

Wed Jul 1, 10:04pm

Wed Jul 1, 9:04pm

Wed Jul 1, 8:04pm

Wed Jul 1, 7:04pm

Wed Jul 1, 6:04pm

Wed Jul 1, 5:05pm

Wed Jul 1, 4:04pm

Wed Jul 1, 3:04pm

Wed Jul 1, 2:04pm

Wed Jul 1, 1:04pm

Wed Jul 1, 12:04pm

Wed Jul 1, 11:04am

Wed Jul 1, 10:04am

Wed Jul 1, 9:04am

Wed Jul 1, 8:05am

Wed Jul 1, 7:04am

Wed Jul 1, 6:04am

Wed Jul 1, 5:04am

Wed Jul 1, 4:04am

Wed Jul 1, 3:04am

Wed Jul 1, 2:04am

Wed Jul 1, 1:04am

Wed Jul 1, 12:04am

Tue Jun 30, 11:04pm

Tue Jun 30, 10:05pm

Tue Jun 30, 9:04pm

Tue Jun 30, 8:05pm

Tue Jun 30, 7:05pm

Tue Jun 30, 6:04pm

Tue Jun 30, 5:04pm

Tue Jun 30, 4:04pm

Tue Jun 30, 3:04pm

Tue Jun 30, 2:04pm

Tue Jun 30, 1:04pm

Tue Jun 30, 12:04pm

Tue Jun 30, 11:04am

Tue Jun 30, 10:04am

Tue Jun 30, 9:04am

Tue Jun 30, 8:04am

Tue Jun 30, 7:04am

Tue Jun 30, 6:04am

Tue Jun 30, 5:04am

Tue Jun 30, 4:04am

Tue Jun 30, 3:04am

Tue Jun 30, 2:04am

Tue Jun 30, 1:04am

Tue Jun 30, 12:04am

Mon Jun 29, 11:04pm

Mon Jun 29, 10:05pm

Mon Jun 29, 9:04pm

Mon Jun 29, 8:05pm

Mon Jun 29, 7:04pm

Mon Jun 29, 6:04pm

Mon Jun 29, 5:04pm

Mon Jun 29, 4:05pm

Mon Jun 29, 3:04pm

Mon Jun 29, 2:04pm

Mon Jun 29, 1:04pm

Mon Jun 29, 12:04pm

Mon Jun 29, 11:04am

Mon Jun 29, 10:04am

Mon Jun 29, 9:04am

Mon Jun 29, 8:04am

Mon Jun 29, 7:04am

Mon Jun 29, 6:04am

Mon Jun 29, 5:04am

Mon Jun 29, 4:04am

Mon Jun 29, 3:04am

Mon Jun 29, 2:04am

Mon Jun 29, 1:04am

Mon Jun 29, 12:04am

Sun Jun 28, 11:05pm

Sun Jun 28, 10:04pm

Sun Jun 28, 9:05pm

Sun Jun 28, 8:04pm

Sun Jun 28, 7:04pm

Sun Jun 28, 6:04pm

Sun Jun 28, 5:04pm

Sun Jun 28, 4:04pm

Sun Jun 28, 3:04pm

Sun Jun 28, 2:05pm

Sun Jun 28, 1:04pm

Sun Jun 28, 12:04pm

Sun Jun 28, 11:04am

Sun Jun 28, 10:04am

Sun Jun 28, 9:04am

Sun Jun 28, 8:04am

Sun Jun 28, 7:04am

Sun Jun 28, 6:04am

Sun Jun 28, 5:04am

Sun Jun 28, 4:04am

Sun Jun 28, 3:04am

Sun Jun 28, 2:05am

Sun Jun 28, 1:04am

Sun Jun 28, 12:05am

Sat Jun 27, 11:04pm

Sat Jun 27, 10:04pm

Sat Jun 27, 8:04pm

Sat Jun 27, 7:04pm

Sat Jun 27, 6:04pm

Sat Jun 27, 5:04pm

Sat Jun 27, 4:05pm

Sat Jun 27, 3:04pm

Sat Jun 27, 2:04pm

Sat Jun 27, 1:05pm

Sat Jun 27, 12:04pm

Sat Jun 27, 11:04am

Sat Jun 27, 10:04am

Sat Jun 27, 9:04am

Sat Jun 27, 8:04am

Sat Jun 27, 7:04am

Sat Jun 27, 6:04am

Sat Jun 27, 5:05am

Sat Jun 27, 4:04am

Sat Jun 27, 3:04am

Sat Jun 27, 2:04am

Sat Jun 27, 1:04am

Sat Jun 27, 12:04am

Fri Jun 26, 11:04pm

Fri Jun 26, 10:04pm

Fri Jun 26, 9:05pm

Fri Jun 26, 8:04pm

Fri Jun 26, 7:05pm

Fri Jun 26, 6:04pm

Fri Jun 26, 5:04pm

Fri Jun 26, 4:04pm

Fri Jun 26, 3:04pm

Fri Jun 26, 2:05pm

Fri Jun 26, 1:04pm

Meta data:

ID: 79f3458c-38fc-4697-8af1-8df1a30eeed9
Link: https://api.weather.gov/products/79f3458c-38fc-4697-8af1-8df1a30eeed9